[[{"header":{"parameterUnit":"m.s-1","parameterCategory":1,"la1":30.2991,"la2":30.254,"lo1":-89.0895,"lo2":-89.0444,"dy":0.0017,"dx":0.0017,"nx":28,"ny":28,"refTime":"2024-06-08T03:00:00:Z","depth":0,"parameterNumber":2,"parameterNumberName":"U-component_of_WINDS"},"data":[0,0,0,0,0,0,0,0,0,0,0,0,0,0,0,0,0,0,0,0,0,0,0,0,0,0,0,0,0,0,0,0,0,0,0,0,0,0,0,0,0,0,0,0,0,0,0,0,0,0,0,0,0,0,0,0,0,0,1.1531,1.1533,0,1.1667,1.1669,1.167,1.1651,1.1649,1.1647,1.1644,1.179,1.1796,1.1802,0,0,0,0,0,0,0,0,0,0,0,0,0,1.1264,1.1269,1.1531,1.1533,1.1535,1.1667,1.1669,1.1671,1.1651,1.1649,1.1646,1.1643,1.1788,1.1796,1.1803,0,0,0,0,0,0,0,0,0,0,0,0,0,1.1388,1.127,1.1531,1.1541,1.1543,1.1666,1.1669,1.1671,1.1652,1.1649,1.1645,1.1642,1.1786,1.1795,1.1804,1.1928,0,0,1.1831,1.1835,0,0,0,0,0,0,0,0,1.1381,1.1398,1.1538,1.1541,1.1543,1.1638,1.1628,1.1757,1.1653,1.1611,1.1644,1.164,1.1743,1.1755,1.1789,1.1935,1.1941,1.1832,1.1838,1.1841,1.1844,0,0,0,0,0,0,0,1.1372,1.1392,1.1585,1.154,1.1543,1.1541,1.1555,1.1652,1.1695,1.1614,1.1613,1.1629,1.1744,1.178,1.1792,1.1943,1.1832,1.184,1.1845,1.1849,1.2201,1.2205,0,0,0,0,0,0,1.136,1.1385,1.1581,1.1589,1.1452,1.1549,1.1564,1.1612,1.1694,1.1703,1.1632,1.1628,1.1766,1.1781,1.1797,1.195,1.1841,1.185,1.1855,1.2197,1.2202,1.2206,0,0,0,0,0,0,1.1354,1.1378,1.1575,1.1487,1.1512,1.1557,1.161,1.1616,1.1652,1.1707,1.1715,1.166,1.1764,1.1784,1.1896,1.1954,1.1854,1.1862,1.2192,1.2198,1.2204,1.2254,0,0,0,0,0,0,1.1347,1.1376,1.1421,1.1488,1.1516,1.167,1.1614,1.1621,1.1667,1.1662,1.1736,1.1745,1.1763,1.1882,1.1905,1.1965,1.1869,1.2187,1.2195,1.2202,1.2248,1.2261,1.2273,0,0,0,0,0,1.1337,1.1431,1.1424,1.1447,1.1574,1.1673,1.169,1.1707,1.1671,1.1719,1.1755,1.1742,1.1944,1.1894,1.1919,1.1983,1.2184,1.2193,1.2202,1.2242,1.2259,1.2273,0,0,0,0,0,0,1.1372,1.144,1.1432,1.155,1.1606,1.1669,1.173,1.1723,1.1792,1.1785,1.1806,1.1823,1.1936,1.197,1.1913,1.2109,1.2059,1.2074,1.2082,1.2098,1.211,1.21,1.1877,0,0,0,0,0,1.1393,1.1465,1.1521,1.162,1.1648,1.1684,1.1728,1.1736,1.1796,1.182,1.1863,1.1923,1.2001,1.2051,1.2125,1.2252,1.227,1.2309,1.2321,1.2332,1.2344,1.2417,1.2436,1.2235,1.2235,1.2235,0,0,1.1438,1.1484,1.1529,1.1628,1.1672,1.1749,1.1704,1.1787,1.1845,1.1833,1.194,1.1975,1.2044,1.2164,1.2219,1.2197,1.2403,1.2343,1.235,1.2358,1.2428,1.2447,1.2464,1.2241,1.224,1.2239,0,0,1.1559,1.16,1.1688,1.1733,1.1799,1.1823,1.1844,1.1909,1.1931,1.2039,1.2032,1.2103,1.2234,1.2284,1.2327,1.2469,1.2461,1.2492,1.2559,1.2629,1.2645,1.2659,1.2712,1.273,1.2505,1.2505,1.2505,0,1.1607,1.172,1.1734,1.1818,1.1864,1.1854,1.1945,1.1989,1.2077,1.211,1.2082,1.2248,1.2294,1.2427,1.2461,1.2496,1.2523,1.2485,1.2641,1.2656,1.2669,1.272,1.2739,1.2508,1.2508,1.2507,1.2507,0,1.1777,1.1856,1.1919,1.2003,1.2056,1.2143,1.2172,1.2224,1.2229,1.2256,1.2368,1.2422,1.2507,1.2539,1.2545,1.2675,1.2658,1.2636,1.2587,1.2691,1.2739,1.2759,1.2513,1.2512,1.2511,1.251,0,0,1.1924,1.2015,1.2038,1.2077,1.215,1.2213,1.2301,1.2383,1.2428,1.249,1.2566,1.2678,1.2658,1.2706,1.2718,1.2779,1.2891,1.275,1.2752,1.2776,1.304,1.3057,1.3079,1.2886,1.289,1.2893,1.3035,0,1.2054,1.2206,1.2222,1.236,1.2435,1.2428,1.2505,1.256,1.2589,1.2658,1.2691,1.277,1.2737,1.2766,1.2827,1.2865,1.2945,1.2854,1.296,1.2963,1.2944,1.3104,1.3122,1.3254,1.3053,1.3057,1.3059,0,1.2225,1.229,1.2435,1.25,1.2532,1.26,1.2678,1.2743,1.2807,1.2824,1.2878,1.2882,1.2976,1.2922,1.3054,1.2992,1.3036,1.3061,1.3067,1.3079,1.3018,1.3122,1.3296,1.3316,1.3088,1.3086,1.3084,0,1.232,1.2444,1.2547,1.258,1.2658,1.2707,1.2742,1.2802,1.2851,1.2919,1.2952,1.3031,1.3075,1.3138,1.3164,1.3122,1.3295,1.3243,1.3313,1.3313,1.3351,1.3348,1.3536,1.3377,1.3377,1.3376,1.3376,0,1.2463,1.2553,1.2591,1.2654,1.2755,1.2774,1.2874,1.2908,1.2961,1.3034,1.3033,1.3101,1.3131,1.3205,1.3226,1.3333,1.3352,1.3371,1.3375,1.3371,1.3369,1.3401,1.3393,1.3382,1.338,1.3379,1.3378,0,1.2586,1.2615,1.2727,1.2792,1.281,1.2882,1.2938,1.3002,1.3029,1.3121,1.3144,1.3188,1.3275,1.3307,1.3414,1.3428,1.3552,1.3549,1.353,1.3532,1.3601,1.3594,1.3817,1.3848,1.3667,1.3669,1.367,0,1.2676,1.2745,1.2817,1.2864,1.29,1.2977,1.3026,1.3049,1.3101,1.3179,1.3234,1.332,1.339,1.353,1.3573,1.3655,1.3655,1.3728,1.3668,1.3662,1.3658,1.3654,1.3662,1.3739,1.3741,1.3742,1.3743,0,1.2834,1.2845,1.2915,1.2992,1.3051,1.3112,1.3172,1.3212,1.3243,1.3303,1.339,1.3445,1.3553,1.364,1.3724,1.3763,1.376,1.3762,1.3783,1.378,1.3767,1.3776,1.3562,1.3757,1.3756,1.3755,1.3754,1.3753,1.2944,1.3006,1.3066,1.3145,1.3192,1.3249,1.3311,1.3347,1.342,1.3509,1.3518,1.3613,1.3678,1.3791,1.3834,1.391,1.3891,1.3921,1.3929,1.3936,1.3942,1.3753,1.3926,1.3926,1.3925,1.3925,1.3925,0,1.3103,1.3142,1.3214,1.3298,1.3361,1.335,1.3416,1.3471,1.3554,1.3613,1.3682,1.3785,1.3869,1.3919,1.4005,1.4057,1.4058,1.4078,1.4075,1.4085,1.3954,1.3927,1.4076,1.4076,1.4076,1.4076,1.4076,1.4076,1.3193,1.3297,1.3316,1.3444,1.3483,1.3574,1.3613,1.3667,1.3714,1.3828,1.3897,1.3929,1.3986,1.4075,1.4153,1.4166,1.4199,1.4222,1.4233,1.411,1.4094,1.4079,1.4055,1.4228,1.4228,1.4358,1.436,1.436]},{"header":{"parameterUnit":"m.s-1","parameterCategory":1,"la1":30.2991,"la2":30.254,"lo1":-89.0895,"lo2":-89.0444,"dy":0.0017,"dx":0.0017,"nx":28,"ny":28,"refTime":"2024-06-08T03:00:00:Z","depth":0,"parameterNumber":3,"parameterNumberName":"V-component_of_WINDS"},"data":[0,0,0,0,0,0,0,0,0,0,0,0,0,0,0,0,0,0,0,0,0,0,0,0,0,0,0,0,0,0,0,0,0,0,0,0,0,0,0,0,0,0,0,0,0,0,0,0,0,0,0,0,0,0,0,0,0,0,-0.4465,-0.4463,0,-0.4277,-0.4275,-0.4273,-0.4374,-0.4379,-0.4384,-0.4389,-0.4184,-0.4174,-0.4164,0,0,0,0,0,0,0,0,0,0,0,0,0,-0.4902,-0.4893,-0.4465,-0.4463,-0.446,-0.4278,-0.4275,-0.4272,-0.4373,-0.4379,-0.4385,-0.4391,-0.4187,-0.4175,-0.4163,0,0,0,0,0,0,0,0,0,0,0,0,0,-0.4712,-0.489,-0.4465,-0.4489,-0.4489,-0.4278,-0.4275,-0.4272,-0.4371,-0.4379,-0.4387,-0.4394,-0.4191,-0.4177,-0.4161,-0.3913,0,0,-0.4115,-0.4108,0,0,0,0,0,0,0,0,-0.4723,-0.4696,-0.4487,-0.4487,-0.4487,-0.4357,-0.4354,-0.4151,-0.4369,-0.4415,-0.4389,-0.4398,-0.4235,-0.4216,-0.4164,-0.3904,-0.3895,-0.4113,-0.4104,-0.4097,-0.4093,0,0,0,0,0,0,0,-0.4736,-0.4705,-0.439,-0.4484,-0.4484,-0.4506,-0.4487,-0.4316,-0.4284,-0.4412,-0.4419,-0.4396,-0.4236,-0.4178,-0.416,-0.3892,-0.4114,-0.41,-0.4091,-0.4085,-0.3421,-0.3413,0,0,0,0,0,0,-0.4749,-0.4715,-0.4396,-0.4385,-0.4626,-0.4492,-0.4471,-0.439,-0.4286,-0.4278,-0.439,-0.4402,-0.4201,-0.4177,-0.4153,-0.3856,-0.4098,-0.4083,-0.4074,-0.343,-0.3419,-0.341,0,0,0,0,0,0,-0.4758,-0.472,-0.4404,-0.4552,-0.4513,-0.4476,-0.4385,-0.4383,-0.4326,-0.4269,-0.4263,-0.4337,-0.4206,-0.4174,-0.3974,-0.385,-0.4076,-0.4062,-0.344,-0.3426,-0.3415,-0.326,0,0,0,0,0,0,-0.477,-0.4722,-0.4629,-0.4549,-0.4505,-0.4229,-0.4377,-0.4374,-0.43,-0.4314,-0.4219,-0.421,-0.4209,-0.3996,-0.3958,-0.3833,-0.405,-0.345,-0.3434,-0.3419,-0.3276,-0.3244,-0.3216,0,0,0,0,0,-0.4785,-0.459,-0.4624,-0.4585,-0.4388,-0.4222,-0.4197,-0.4203,-0.429,-0.4195,-0.416,-0.4213,-0.3871,-0.3974,-0.3933,-0.3801,-0.3458,-0.3438,-0.342,-0.3289,-0.325,-0.3217,0,0,0,0,0,0,-0.465,-0.4579,-0.4616,-0.439,-0.4312,-0.424,-0.4119,-0.4161,-0.4053,-0.407,-0.408,-0.4057,-0.3849,-0.3806,-0.3922,-0.3557,-0.3678,-0.3649,-0.3592,-0.3554,-0.3525,-0.3538,-0.4038,0,0,0,0,0,-0.4596,-0.447,-0.4414,-0.4219,-0.4179,-0.4156,-0.4083,-0.4096,-0.4014,-0.398,-0.393,-0.3845,-0.3719,-0.3635,-0.3515,-0.3272,-0.3252,-0.3161,-0.3132,-0.3107,-0.3081,-0.295,-0.2909,-0.3348,-0.3348,-0.3348,0,0,-0.4478,-0.4424,-0.4343,-0.419,-0.4132,-0.3998,-0.4127,-0.398,-0.388,-0.3956,-0.3765,-0.3725,-0.3632,-0.3409,-0.3308,-0.3366,-0.2957,-0.3083,-0.3064,-0.3051,-0.2926,-0.2885,-0.2848,-0.3335,-0.3337,-0.3339,0,0,-0.4196,-0.4144,-0.3976,-0.3917,-0.3828,-0.3815,-0.3775,-0.3698,-0.3676,-0.3485,-0.354,-0.3421,-0.3203,-0.3135,-0.3071,-0.277,-0.2815,-0.2731,-0.2572,-0.2444,-0.241,-0.2379,-0.227,-0.2232,-0.2706,-0.2705,-0.2705,0,-0.406,-0.3865,-0.3884,-0.3734,-0.3665,-0.3735,-0.3564,-0.3504,-0.3378,-0.3328,-0.3397,-0.3128,-0.3069,-0.2832,-0.2759,-0.2706,-0.2659,-0.2739,-0.2414,-0.2384,-0.2355,-0.2251,-0.2211,-0.2696,-0.2697,-0.2698,-0.2699,0,-0.3702,-0.3566,-0.3441,-0.3325,-0.3242,-0.3082,-0.3075,-0.2988,-0.301,-0.2989,-0.2794,-0.2728,-0.2598,-0.2543,-0.256,-0.2308,-0.2347,-0.2415,-0.2535,-0.2303,-0.2206,-0.2167,-0.2682,-0.2685,-0.2688,-0.2691,0,0,-0.3323,-0.3225,-0.3178,-0.3127,-0.3037,-0.2931,-0.2775,-0.2652,-0.2578,-0.249,-0.2358,-0.2176,-0.2239,-0.2167,-0.2178,-0.2066,-0.1831,-0.2148,-0.2146,-0.209,-0.1549,-0.1497,-0.1451,-0.1863,-0.1856,-0.185,-0.1557,0,-0.3034,-0.2766,-0.278,-0.2526,-0.2401,-0.2468,-0.2332,-0.2261,-0.2239,-0.2127,-0.2102,-0.1972,-0.2066,-0.2024,-0.1917,-0.1883,-0.1722,-0.1905,-0.1737,-0.1731,-0.1755,-0.14,-0.1343,-0.1069,-0.1519,-0.1512,-0.1508,0,-0.2659,-0.2566,-0.2301,-0.2233,-0.2181,-0.2059,-0.1949,-0.1843,-0.1764,-0.1756,-0.1679,-0.1709,-0.1549,-0.1678,-0.1458,-0.1581,-0.1515,-0.1488,-0.1478,-0.1459,-0.1602,-0.1369,-0.0982,-0.094,-0.1448,-0.1453,-0.1457,0,-0.2408,-0.2215,-0.2033,-0.1987,-0.1904,-0.1816,-0.1777,-0.1707,-0.1633,-0.1536,-0.1489,-0.1373,-0.1309,-0.1218,-0.1216,-0.131,-0.0993,-0.1121,-0.0979,-0.0979,-0.0905,-0.0909,-0.0499,-0.0867,-0.0868,-0.0868,-0.0869,0,-0.2082,-0.1916,-0.1919,-0.1806,-0.1623,-0.1642,-0.146,-0.1429,-0.1367,-0.1248,-0.1298,-0.1185,-0.1191,-0.1075,-0.1073,-0.0891,-0.0861,-0.0849,-0.0849,-0.0842,-0.0843,-0.0795,-0.0813,-0.0858,-0.086,-0.0862,-0.0864,0,-0.1767,-0.1763,-0.1568,-0.1508,-0.1489,-0.1357,-0.1304,-0.1196,-0.1182,-0.103,-0.0996,-0.0971,-0.0838,-0.0829,-0.0674,-0.0673,-0.0451,-0.0474,-0.0478,-0.0481,-0.0339,-0.0352,0.0119,0.018,-0.023,-0.0226,-0.0223,0,-0.1557,-0.1433,-0.1362,-0.1288,-0.1245,-0.1124,-0.1052,-0.1067,-0.0988,-0.0892,-0.0795,-0.0669,-0.0568,-0.0352,-0.0318,-0.02,-0.0219,-0.0063,-0.0201,-0.0199,-0.0214,-0.0221,-0.0208,-0.0034,-0.0029,-0.0026,-0.0023,0,-0.1185,-0.1191,-0.1086,-0.098,-0.0893,-0.0809,-0.0731,-0.0667,-0.0673,-0.0582,-0.045,-0.0372,-0.0218,-0.0091,0.0023,0.0066,0.0023,0.0019,0.0059,0.007,0.0062,0.0069,-0.0402,0.001,0.0007,0.0004,0.0003,0.0001,-0.0915,-0.0808,-0.0743,-0.0624,-0.0569,-0.0497,-0.0394,-0.0369,-0.026,-0.0138,-0.0154,-0.0006,0.0067,0.0214,0.0265,0.0381,0.0329,0.0386,0.0401,0.0416,0.0431,0.004,0.0402,0.0401,0.04,0.0399,0.0399,0,-0.0543,-0.0507,-0.0398,-0.0291,-0.0198,-0.0255,-0.0173,-0.009,0.0038,0.0108,0.0206,0.0357,0.0478,0.0519,0.0637,0.0723,0.0706,0.0755,0.075,0.0761,0.0471,0.0426,0.0766,0.0766,0.0766,0.0766,0.0766,0.0766,-0.0339,-0.0162,-0.016,0.0043,0.008,0.022,0.0272,0.0339,0.0393,0.0563,0.0662,0.0685,0.0743,0.0864,0.0973,0.0982,0.1029,0.1087,0.1088,0.0818,0.0781,0.0746,0.0704,0.1097,0.1097,0.1368,0.1371,0.1373]}]]